Lid_Strength_Index
1 1 2 2 2 3 3 4 5 5 6 6 7 7 6 7 7 7 7 7 7 7 7 7 6 6 9 14 15 9 4 5 6 6 10 11 11 11 11 12 12 14 13 12 11 11 11
2 2 2 3 2 3 3 4 5 5 5 6 6 6 7 7 7 7 7 7 7 7 7 6 6 6 11 17 11 9 9 8 8 9 9 9 11 11 13 13 13 11 12 12 11 11 10
2 2 2 3 3 3 3 4 5 5 6 6 6 6 7 7 7 7 6 6 7 6 6 6 6 7 11 13 9 8 8 8 8 8 10 9 10 12 13 14 12 12 15 14 13 12 11
1 2 2 3 3 3 4 4 5 6 6 5 6 6 7 7 7 7 6 6 6 6 6 6 6 8 13 7 8 7 8 8 8 8 8 8 9 11 13 12 13 15 16 18 14 12 11
0 1 2 3 3 3 4 4 5 6 6 7 6 6 7 7 6 7 6 6 6 5 5 5 9 11 13 5 8 7 9 9 9 9 9 7 10 12 13 16 18 17 19 18 16 12 11
0 0 2 2 3 4 4 4 5 6 6 6 7 7 6 7 7 6 6 6 6 6 6 6 8 13 11 12 9 8 9 9 10 11 11 12 13 15 16 17 20 18 18 18 17 15 11
-0 1 1 2 2 4 5 5 5 6 7 7 7 7 6 6 6 6 7 11 14 15 14 16 14 14 13 11 9 10 9 10 11 13 16 14 17 19 17 14 13 13 14 14 13 11 12
0 1 0 1 3 3 5 6 5 6 7 7 7 8 7 6 6 6 10 13 13 13 16 13 12 12 10 10 12 10 9 12 12 15 13 14 18 13 13 12 12 12 12 13 11 10 10
0 1 1 2 2 3 4 5 5 6 6 7 7 8 7 6 6 9 12 11 9 10 17 13 11 10 9 9 12 13 10 11 13 14 13 15 12 10 10 11 12 13 14 12 13 10 11
1 1 2 1 3 3 4 5 5 6 7 7 7 7 7 6 10 12 12 9 9 10 19 15 11 9 9 10 13 9 9 10 11 13 12 12 9 10 11 11 10 14 9 10 12 13 16
2 2 3 3 4 3 3 4 6 7 7 7 7 7 6 6 12 12 10 9 8 10 22 13 12 8 9 12 11 11 8 9 12 11 10 13 11 11 11 11 9 12 9 10 11 13 14
2 3 3 4 3 4 6 5 6 7 7 7 7 7 6 8 11 10 9 9 10 18 21 15 12 12 12 12 12 10 9 7 8 11 11 11 8 9 9 8 9 8 10 11 12 13 19
3 3 4 4 5 4 5 5 6 6 7 7 7 6 7 8 11 9 9 10 18 21 13 15 14 12 13 13 12 10 10 11 13 15 15 11 11 9 8 11 9 10 13 19 20 20 20
4 4 4 4 5 5 6 6 6 7 7 6 6 6 8 8 9 9 10 14 20 16 15 12 12 13 15 13 12 11 11 13 10 12 14 16 17 12 10 10 12 11 13 18 21 21 19
4 5 6 5 6 6 6 6 6 6 6 6 6 10 10 9 8 8 14 20 17 15 13 13 13 15 15 13 12 12 13 12 11 10 15 16 15 10 9 9 9 12 14 10 15 15 19
5 6 6 6 6 6 6 6 6 7 6 6 11 11 10 8 7 9 15 15 14 11 10 11 16 14 18 14 16 14 13 10 11 9 8 12 17 10 9 8 9 11 10 16 16 20 22
6 6 6 6 6 6 6 6 6 6 6 7 11 12 9 7 7 12 18 16 12 9 10 12 14 15 15 15 14 13 12 10 9 9 8 10 13 13 11 12 13 13 14 14 13 15 21
4 4 6 6 6 6 6 6 6 6 6 9 10 14 8 7 14 15 16 12 9 10 10 11 11 11 14 13 13 13 13 11 8 8 12 10 13 16 14 10 9 11 13 12 17 17 17
4 5 5 5 6 6 6 6 6 5 6 9 11 11 8 7 16 17 13 11 10 11 11 12 12 11 11 16 17 15 13 8 8 9 11 10 14 17 16 13 10 13 12 12 13 14 18
4 5 5 5 6 6 6 6 5 5 5 8 10 15 11 9 12 13 13 13 13 10 11 10 11 11 13 17 13 16 13 9 8 8 7 9 13 15 18 16 13 15 13 12 13 17 17
4 5 5 5 6 6 5 5 4 5 4 7 12 14 11 16 14 13 12 12 14 14 11 11 13 12 14 19 16 16 13 11 9 8 9 10 15 13 13 13 13 14 14 13 14 14 17
4 4 4 5 5 5 5 4 4 4 4 8 12 11 12 12 11 12 12 13 14 13 13 13 13 11 12 13 13 15 13 11 12 10 11 10 14 13 15 13 15 16 15 14 14 15 15
4 4 4 4 5 4 4 4 4 3 5 8 8 8 11 12 13 14 14 13 13 11 10 9 11 12 12 11 10 9 9 10 10 11 12 12 13 14 17 13 14 18 16 15 15 14 13
3 4 4 4 4 4 4 4 3 3 4 7 7 8 12 14 13 13 11 11 11 11 11 10 10 11 9 7 7 8 9 9 9 9 9 12 12 13 16 15 21 16 13 13 15 14 14
3 3 3 3 3 3 3 3 3 3 4 6 6 8 11 14 12 11 11 11 11 10 11 10 9 8 8 8 11 12 12 12 10 9 10 9 12 15 17 17 16 15 14 15 15 16 13
2 2 3 2 2 3 3 3 3 3 4 5 6 6 9 12 12 9 11 11 13 13 12 10 8 8 8 11 13 15 17 14 15 12 9 10 11 13 15 18 20 16 14 11 12 18 12
2 2 2 1 2 2 3 3 3 3 3 4 6 6 8 12 10 9 12 12 10 12 13 12 10 10 9 14 14 15 15 11 16 15 14 14 14 16 15 17 16 15 13 9 16 17 11
2 2 2 2 2 2 2 3 3 3 3 4 6 5 7 11 10 8 7 10 10 11 15 12 13 11 13 14 14 14 15 13 13 12 13 15 16 17 16 18 20 13 12 14 12 11 11
2 2 2 2 2 2 2 2 2 3 3 3 7 5 5 9 10 8 7 6 7 8 10 9 9 10 11 14 11 13 14 13 13 17 10 15 14 16 15 16 13 12 12 11 11 13 14